Home > Weather > Charlotte > Past weeks

Flag for USA Past Weather in Charlotte, North Carolina, USA — Yesterday and Last 2 Weeks

Now
74 °F

Passing clouds.


Feels Like: 74 °F
Forecast: 67 / 86 °F
Wind: 5 mph from Southeast

Location: Charlotte / Douglas International Airport

Current Time: Jun 30, 2016 at 1:07:49 AM

Latest Report: Jun 29, 2016 at 11:52 PM


Visibility: 10 mi

Pressure: 30.00 "Hg

Humidity: 79%

Dew Point: 67 °F

Location of CharlotteLocation

Past Weather in Charlotte — Graph

°F

Charlotte Temperature Yesterday

Maximum temperature yesterday: 92 °F (at 3:52 PM)
Minimum temperature yesterday: 66 °F (at 5:52 AM)
Average temperature yesterday: 79 °F

High & Low Weather Summary for the Past Weeks

 TemperatureHumidityPressure
High95 °F (Jun 23, 2:52 PM)96% (Jun 20, 4:52 AM)30.38 "Hg (Jun 20, 4:52 AM)
Low57 °F (Jun 20, 4:52 AM)32% (Jun 18, 6:52 PM)29.70 "Hg (Jun 17, 1:52 AM)
Average79 °F60%30.02 "Hg
* Reported Jun 14 10:52 PM — Jun 29 10:52 PM, Charlotte, Weather by CustomWeather, © 2016

Note: Actual official high and low records may vary slightly from our data, if they occured in-between our weather recording intervals... More about our weather records

Advertising

Charlotte Weather History for the Previous 24 Hours

Scroll right to see more
 ConditionsComfort  
Time TempWeatherWind HumidityBarometerVisibility
10:52 PM
Wed, Jun 29
70 °FThunderstorms. Fog.6 mph93%30.01 "Hg4 mi
9:52 PM78 °FPassing clouds.15 mph64%29.95 "Hg10 mi
8:52 PM81 °FPartly sunny.12 mph54%29.94 "Hg10 mi
7:52 PM78 °FPartly sunny.13 mph66%29.91 "Hg10 mi
6:52 PM82 °FPartly sunny.8 mph53%29.90 "Hg10 mi
5:52 PM83 °FPartly sunny.10 mph51%29.90 "Hg10 mi
4:52 PM89 °FBroken clouds.5 mph38%29.90 "Hg10 mi
3:52 PM92 °FScattered clouds.7 mph36%29.90 "Hg10 mi
2:52 PM91 °FScattered clouds.No wind32%29.92 "Hg10 mi
1:52 PM91 °FScattered clouds.5 mph34%29.93 "Hg10 mi
12:52 PM89 °FScattered clouds.5 mph42%29.95 "Hg10 mi
11:52 AM86 °FPassing clouds.No wind45%29.96 "Hg10 mi
10:52 AM86 °FPassing clouds.5 mph48%29.97 "Hg10 mi
9:52 AM82 °FPassing clouds.6 mph53%29.97 "Hg10 mi
8:52 AM78 °FPassing clouds.6 mph69%29.97 "Hg10 mi
7:52 AM73 °FPassing clouds.5 mph79%29.96 "Hg10 mi
6:52 AM68 °FPassing clouds.No wind87%29.95 "Hg10 mi
5:52 AM66 °FPassing clouds.No wind90%29.93 "Hg10 mi
4:52 AM68 °FPassing clouds.No wind87%29.92 "Hg10 mi
3:52 AM68 °FPassing clouds.No wind87%29.91 "Hg10 mi
2:52 AM69 °FPassing clouds.No wind84%29.92 "Hg10 mi
1:52 AM69 °FPassing clouds.No wind84%29.93 "Hg10 mi
Weather by CustomWeather, © 2016

See weather overviewHow to use our weather pages